Middletown, PA

11:57 AM EDT on August 17, 2017 (GMT -0400)
Harrisburg International

Weather History for KMDT - April, 2013

Change the Weather History Date:

Thursday, April 4, 2013

  Actual Average Record
Temperature  
Mean Temperature 38 °F 48 °F  
Max Temperature 51 °F 58 °F 82 °F (1999)
Min Temperature 25 °F 38 °F 24 °F (1954)
Degree Days  
Heating Degree Days 27 17  
Month to date heating degree days 101 70  
Since 1 July heating degree days 4701 4781  
Cooling Degree Days 0 0  
Month to date cooling degree days 0 0  
Year to date cooling degree days 0 1  
Moisture  
Dew Point 16 °F    
Average Humidity 43    
Maximum Humidity 62    
Minimum Humidity 24    
Precipitation  
Precipitation 0.00 in 0.10 in 1.12 in (1973)
Month to date precipitation T 0.44  
Year to date precipitation 7.39 9.08  
Snow  
Snow 0.00 in 0.00 in 0.70 in (1957)
Month to date snowfall T 0.1  
Since 1 July snowfall 17.0 30.3  
Snow Depth 0.00 in    
Sea Level Pressure  
Sea Level Pressure 30.28 in    
Wind  
Wind Speed 6 mph (SSW)    
Max Wind Speed 14 mph    
Max Gust Speed 18 mph    
Visibility 10 miles    
Events      
T = Trace of Precipitation, MM = Missing Value Source: NWS Daily Summary

Daily Weather History Graph

Daily Weather History Graph

Search for Another Location

Airport or City:

Trip Planner

Search our weather history database for the weather conditions in past years. The results will help you decide how hot, cold, wet, or windy it might be!

Date:

Astronomy

Apr. 04, 2013 Rise Set
Actual Time 6:45 AM EDT 7:34 PM EDT
Civil Twilight 6:18 AM EDT 8:02 PM EDT
Nautical Twilight 5:45 AM EDT 8:35 PM EDT
Astronomical Twilight 5:11 AM EDT 9:08 PM EDT
Moon 3:11 AM EDT (4/4) 1:50 PM EDT (4/4)
Length of Visible Light 13h 44m
Length of Day
12h 49m
Waning Crescent, 34% of the Moon is Illuminated
Apr 4
Waning Crescent
Apr 10
New
Apr 18
First Quarter
Apr 25
Full
May 2
Last Quarter

Hourly Weather History & Observations

Time (EDT) Temp. Windchill Dew Point Humidity Pressure Visibility Wind Dir Wind Speed Gust Speed Precip Events Conditions
12:56 AM 32.0 °F 24.2 °F 10.9 °F 42% 30.37 in 10.0 mi NW 9.2 mph - N/A   Clear
1:56 AM 30.9 °F 24.3 °F 14.0 °F 50% 30.38 in 10.0 mi NW 6.9 mph - N/A   Clear
2:56 AM 28.9 °F 25.2 °F 12.9 °F 51% 30.37 in 10.0 mi NW 3.5 mph - N/A   Clear
3:56 AM 27.0 °F 21.6 °F 12.9 °F 56% 30.36 in 10.0 mi NNW 4.6 mph - N/A   Clear
4:56 AM 25.0 °F 18.1 °F 14.0 °F 63% 30.39 in 10.0 mi NW 5.8 mph - N/A   Clear
5:56 AM 27.0 °F 23.0 °F 14.0 °F 58% 30.40 in 10.0 mi NNW 3.5 mph - N/A   Partly Cloudy
6:56 AM 27.0 °F 21.6 °F 14.0 °F 58% 30.43 in 10.0 mi NNW 4.6 mph - N/A   Clear
7:56 AM 30.9 °F 26.2 °F 14.0 °F 50% 30.42 in 10.0 mi NW 4.6 mph - N/A   Clear
8:56 AM 33.1 °F 27.7 °F 12.9 °F 43% 30.41 in 10.0 mi NW 5.8 mph - N/A   Mostly Cloudy
9:56 AM 36.0 °F 32.1 °F 14.0 °F 41% 30.38 in 10.0 mi SE 4.6 mph - N/A   Mostly Cloudy
10:56 AM 37.9 °F - 15.1 °F 39% 30.37 in 10.0 mi Calm Calm - N/A   Overcast
11:56 AM 43.0 °F 40.3 °F 16.0 °F 34% 30.35 in 10.0 mi ESE 4.6 mph - N/A   Overcast
12:56 PM 45.0 °F 40.6 °F 17.1 °F 33% 30.31 in 10.0 mi SE 8.1 mph - N/A   Overcast
1:56 PM 48.9 °F - 17.1 °F 28% 30.27 in 10.0 mi South 9.2 mph - N/A   Overcast
2:56 PM 51.1 °F - 17.1 °F 26% 30.23 in 10.0 mi SSE 5.8 mph - N/A   Overcast
3:56 PM 50.0 °F - 15.1 °F 25% 30.19 in 10.0 mi SSE 9.2 mph - N/A   Overcast
4:56 PM 48.9 °F - 16.0 °F 27% 30.17 in 10.0 mi SSW 8.1 mph - N/A   Overcast
5:56 PM 48.0 °F - 16.0 °F 28% 30.17 in 10.0 mi SSW 10.4 mph 17.3 mph N/A   Overcast
6:56 PM 46.9 °F - 15.1 °F 28% 30.14 in 10.0 mi South 6.9 mph - N/A   Overcast
7:56 PM 46.0 °F 43.1 °F 16.0 °F 30% 30.12 in 10.0 mi South 5.8 mph - N/A   Overcast
8:56 PM 44.1 °F 39.0 °F 19.9 °F 38% 30.13 in 10.0 mi SSE 9.2 mph - N/A   Overcast
9:56 PM 43.0 °F 38.8 °F 19.9 °F 40% 30.12 in 10.0 mi South 6.9 mph - N/A   Overcast
10:56 PM 42.1 °F 38.4 °F 21.9 °F 45% 30.09 in 10.0 mi SSE 5.8 mph - N/A   Overcast
11:56 PM 41.0 °F 39.0 °F 21.9 °F 47% 30.07 in 10.0 mi SE 3.5 mph - N/A   Overcast